BEIDOU-3 M9 (C23)

Last updated on Jan. 22, 2021, 6:27 a.m. UTC

1 43581U 18062A   21021.81528387  .00000053  00000-0  00000-0 0  9994
2 43581  54.4627 249.6322 0003170 309.1256   4.1538  1.86231766 16891
UTC
Height (km)
Latitude
Longitude
Inclination
Orbital Period
UTC large
Height (km)
Speed (km/s)
/
Latitude / Longitude
Inclination (degrees)
Orbital Period (minutes)
Azimuth
Elevation
Range (km)
Doppler Factor
iOS Compass Heading
iOS Angle

Next 30 passes for location: Hong Kong

Rise time Rise Azimuth (degrees) Set time Set Azimuth (degrees) Duration Max altitude (degrees)

No matching passes for this satellites